Weather History for Zephyrhills, FL

Change the Weather History Date:

Thursday, October 4, 2012

  Actual Average (KPCM) Record (KPCM)
Temperature  
Mean Temperature 80 °F -  
Max Temperature 91 °F 88 °F 93 °F (1955)
Min Temperature 69 °F 67 °F 53 °F (1940)
Cooling Degree Days 15    
Growing Degree Days 30 (Base 50)    
Moisture  
Dew Point 70 °F    
Average Humidity 85    
Maximum Humidity 100    
Minimum Humidity 46    
Precipitation  
Precipitation 0.65 in - - ()
Sea Level Pressure  
Sea Level Pressure 30.17 in    
Wind  
Wind Speed 3 mph ()    
Max Wind Speed 21 mph    
Max Gust Speed 32 mph    
Visibility 9.3 miles    
Events Rain , Thunderstorm    
Averages and records for this station are not official NWS values.
T = Trace of Precipitation, MM = Missing Value Source: Averaged Metar Reports

Daily Weather History Graph

Daily Weather History Graph

Search for Another Location

Airport:

Trip Planner

Search our weather history database for the weather conditions in past years. The results will help you decide how hot, cold, wet, or windy it might be!

Date:

Astronomy

Oct. 04, 2012 Rise Set
Actual Time 7:23 AM EDT 7:10 PM EDT
Civil Twilight 6:59 AM EDT 7:34 PM EDT
Nautical Twilight 6:32 AM EDT 8:01 PM EDT
Astronomical Twilight 6:05 AM EDT 8:28 PM EDT
Moon 10:07 PM EDT (10/4) 11:17 AM EDT (10/4)
Length of Visible Light 12h 34m
Length of Day
11h 47m
Waning Gibbous, 82% of the Moon is Illuminated
Oct 4
Waning Gibbous
Oct 8
Last Quarter
Oct 15
New
Oct 21
First Quarter
Oct 29
Full

Hourly Weather History & Observations

Time (EDT) Temp. Heat Index Dew Point Humidity Pressure Visibility Wind Dir Wind Speed Gust Speed Precip Events Conditions
12:15 AM 71.6 °F - 69.8 °F 94% 30.18 in 10.0 mi East 4.6 mph - N/A   Overcast
12:35 AM 71.6 °F - 69.8 °F 94% 30.19 in 10.0 mi Calm Calm - N/A   Overcast
12:55 AM 71.6 °F - 69.8 °F 94% 30.18 in 10.0 mi East 3.5 mph - N/A   Overcast
1:15 AM 71.6 °F - 69.8 °F 94% 30.18 in 10.0 mi East 5.8 mph - N/A   Overcast
1:35 AM 71.6 °F - 69.8 °F 94% 30.18 in 10.0 mi East 3.5 mph - N/A   Overcast
1:55 AM 71.6 °F - 69.8 °F 94% 30.18 in 10.0 mi Calm Calm - N/A   Overcast
2:15 AM 71.6 °F - 69.8 °F 94% 30.18 in 10.0 mi East 3.5 mph - N/A   Overcast
2:35 AM 71.6 °F - 69.8 °F 94% 30.16 in 10.0 mi Calm Calm - N/A   Overcast
2:55 AM 71.6 °F - 69.8 °F 94% 30.15 in 10.0 mi Calm Calm - N/A   Overcast
3:15 AM 71.6 °F - 69.8 °F 94% 30.15 in 10.0 mi Calm Calm - N/A   Scattered Clouds
3:35 AM 69.8 °F - 69.8 °F 100% 30.15 in 10.0 mi Calm Calm - N/A   Clear
4:15 AM 71.6 °F - 69.8 °F 94% 30.14 in 10.0 mi East 3.5 mph - N/A   Clear
4:35 AM 71.6 °F - 69.8 °F 94% 30.14 in 10.0 mi ENE 3.5 mph - N/A   Clear
4:55 AM 69.8 °F - 69.8 °F 100% 30.15 in 10.0 mi North 3.5 mph - N/A   Clear
5:15 AM 69.8 °F - 69.8 °F 100% 30.16 in 10.0 mi NE 3.5 mph - N/A   Clear
5:35 AM 69.8 °F - 68.0 °F 94% 30.16 in 10.0 mi ENE 3.5 mph - N/A   Clear
5:55 AM 69.8 °F - 68.0 °F 94% 30.17 in 10.0 mi Calm Calm - 0.01 in   Clear
6:15 AM 69.8 °F - 68.0 °F 94% 30.18 in 10.0 mi Calm Calm - N/A   Clear
6:35 AM 69.8 °F - 68.0 °F 94% 30.18 in 5.0 mi Calm Calm - N/A   Clear
6:55 AM 69.8 °F - 68.0 °F 94% 30.18 in 5.0 mi Calm Calm - N/A   Clear
7:15 AM 69.8 °F - 68.0 °F 94% 30.19 in 7.0 mi Calm Calm - N/A   Clear
7:35 AM 69.8 °F - 68.0 °F 94% 30.19 in 5.0 mi Calm Calm - N/A   Clear
7:55 AM 69.8 °F - 68.0 °F 94% 30.19 in 5.0 mi Calm Calm - N/A   Clear
8:15 AM 71.6 °F - 69.8 °F 94% 30.20 in 7.0 mi Calm Calm - N/A   Clear
8:35 AM 71.6 °F - 71.6 °F 100% 30.20 in 10.0 mi Calm Calm - N/A   Clear
8:55 AM 73.4 °F - 73.4 °F 100% 30.20 in 10.0 mi Calm Calm - N/A   Clear
9:15 AM 77.0 °F - 73.4 °F 89% 30.21 in 10.0 mi Calm Calm - N/A   Scattered Clouds
9:35 AM 78.8 °F - 75.2 °F 89% 30.21 in 10.0 mi Calm Calm - N/A   Scattered Clouds
9:55 AM 78.8 °F - 77.0 °F 94% 30.21 in 10.0 mi Calm Calm - N/A   Clear
10:15 AM 80.6 °F 87.1 °F 77.0 °F 89% 30.20 in 10.0 mi Calm Calm - N/A   Scattered Clouds
10:35 AM 80.6 °F 87.1 °F 77.0 °F 89% 30.20 in 10.0 mi SE 3.5 mph - N/A   Scattered Clouds
10:55 AM 82.4 °F 90.9 °F 77.0 °F 84% 30.20 in 10.0 mi ESE 5.8 mph - N/A   Mostly Cloudy
11:15 AM 82.4 °F 90.9 °F 77.0 °F 84% 30.20 in 10.0 mi SE 3.5 mph - N/A   Mostly Cloudy
11:35 AM 86.0 °F 95.1 °F 75.2 °F 70% 30.20 in 10.0 mi East 5.8 mph - N/A   Scattered Clouds
11:55 AM 86.0 °F 93.4 °F 73.4 °F 66% 30.20 in 10.0 mi ESE 6.9 mph - N/A   Scattered Clouds
12:15 PM 87.8 °F 93.8 °F 71.6 °F 58% 30.20 in 10.0 mi East 6.9 mph - N/A   Clear
12:35 PM 87.8 °F 93.8 °F 71.6 °F 58% 30.19 in 10.0 mi SSE 5.8 mph - N/A   Clear
12:55 PM 87.8 °F 93.8 °F 71.6 °F 58% 30.18 in 10.0 mi SE 3.5 mph - N/A   Scattered Clouds
1:15 PM 87.8 °F 93.8 °F 71.6 °F 58% 30.17 in 10.0 mi SSW 3.5 mph - N/A   Scattered Clouds
1:35 PM 89.6 °F 94.7 °F 69.8 °F 52% 30.16 in 10.0 mi SE 4.6 mph - N/A   Scattered Clouds
1:55 PM 89.6 °F 94.7 °F 69.8 °F 52% 30.16 in 10.0 mi Calm Calm - N/A   Mostly Cloudy
2:35 PM 91.4 °F 95.4 °F 68.0 °F 46% 30.13 in 10.0 mi Calm Calm - N/A   Scattered Clouds
2:55 PM 89.6 °F 93.4 °F 68.0 °F 49% 30.12 in 10.0 mi Calm Calm - N/A   Scattered Clouds
3:15 PM 91.4 °F 96.8 °F 69.8 °F 49% 30.10 in 10.0 mi Calm Calm - N/A   Mostly Cloudy
3:35 PM 89.6 °F 93.4 °F 68.0 °F 49% 30.09 in 10.0 mi Calm Calm - N/A   Mostly Cloudy
3:55 PM 91.4 °F 96.8 °F 69.8 °F 49% 30.08 in 10.0 mi Calm Calm - N/A   Scattered Clouds
4:15 PM 87.8 °F 92.6 °F 69.8 °F 55% 30.08 in 10.0 mi Calm Calm - N/A   Scattered Clouds
4:35 PM 87.8 °F 92.6 °F 69.8 °F 55% 30.10 in 10.0 mi Calm Calm - N/A   Scattered Clouds
4:55 PM 86.0 °F 90.4 °F 69.8 °F 58% 30.09 in 10.0 mi NE 12.7 mph - N/A   Mostly Cloudy
5:15 PM 80.6 °F 83.9 °F 69.8 °F 70% 30.10 in 10.0 mi Calm Calm - N/A Rain , Thunderstorm Light Thunderstorms and Rain
5:35 PM 73.4 °F - 68.0 °F 83% 30.15 in 5.0 mi South 20.7 mph 32.2 mph 0.01 in Rain , Thunderstorm Light Thunderstorms and Rain
5:55 PM 71.6 °F - 68.0 °F 88% 30.19 in 3.0 mi South 13.8 mph 19.6 mph 0.15 in Rain , Thunderstorm Heavy Thunderstorms and Rain
6:15 PM 69.8 °F - 68.0 °F 94% 30.17 in 3.0 mi Calm Calm - 0.25 in Rain , Thunderstorm Thunderstorms and Rain
6:35 PM 71.6 °F - 69.8 °F 94% 30.15 in 10.0 mi Calm Calm - 0.28 in Rain , Thunderstorm Light Thunderstorms and Rain
6:55 PM 71.6 °F - 69.8 °F 94% 30.16 in 10.0 mi North 4.6 mph - 0.28 in Rain , Thunderstorm Light Thunderstorms and Rain
7:15 PM 71.6 °F - 69.8 °F 94% 30.16 in 10.0 mi NNE 5.8 mph - 0.01 in Rain , Thunderstorm Light Thunderstorms and Rain
7:35 PM 69.8 °F - 69.8 °F 100% 30.18 in 7.0 mi NNE 10.4 mph - 0.05 in Rain , Thunderstorm Thunderstorms and Rain
7:55 PM 71.6 °F - 69.8 °F 94% 30.19 in 10.0 mi NE 12.7 mph 17.3 mph 0.09 in Rain Rain
8:15 PM 69.8 °F - 69.8 °F 100% 30.18 in 10.0 mi NE 11.5 mph - 0.04 in Rain , Thunderstorm Light Thunderstorms and Rain
8:35 PM 69.8 °F - 69.8 °F 100% 30.18 in 10.0 mi NNE 6.9 mph - 0.07 in Rain Rain
8:55 PM 69.8 °F - 69.8 °F 100% 30.17 in 7.0 mi NE 6.9 mph - 0.11 in Rain Rain
9:15 PM 69.8 °F - 69.8 °F 100% 30.15 in 10.0 mi NNE 6.9 mph - 0.01 in Rain Light Rain
9:35 PM 69.8 °F - 68.0 °F 94% 30.15 in 10.0 mi NE 4.6 mph - 0.01 in   Clear
9:55 PM 69.8 °F - 68.0 °F 94% 30.15 in 10.0 mi NNE 5.8 mph - 0.01 in   Clear
10:15 PM 69.8 °F - 68.0 °F 94% 30.16 in 10.0 mi NNE 5.8 mph - N/A   Clear
10:35 PM 69.8 °F - 68.0 °F 94% 30.16 in 10.0 mi NNE 3.5 mph - N/A   Clear
10:55 PM 69.8 °F - 68.0 °F 94% 30.17 in 10.0 mi Calm Calm - N/A   Clear
11:15 PM 69.8 °F - 68.0 °F 94% 30.17 in 10.0 mi Calm Calm - N/A   Clear
11:35 PM 69.8 °F - 68.0 °F 94% 30.16 in 10.0 mi Calm Calm - N/A   Clear
11:55 PM 69.8 °F - 68.0 °F 94% 30.16 in 10.0 mi Calm Calm - N/A   Clear